Simultaneous Nadir Overpasses (SNOs) Predictions

Prediction of SNOs between GOES-14 and NOAA-20 Satellite Orbit:

Table of predicted SNOs for the next 14.0 days since TLE Epoch: 1/9/2021
Index Date Time (GOES-14) GOES-14 Lat,Lon NOAA-20 Lat,Lon Distance(km) Time Diff (sec)
1 01/09/2021 08:17:36 -0.08,-104.36 -0.22,-103.58 88.29 80
2 01/11/2021 20:20:48 0.07,-104.08 0.04,-104.35 29.99 80
3 01/12/2021 20:04:42 0.07,-104.09 1.00, -99.81 486.83 80
4 01/14/2021 08:23:52 -0.07,-104.37 0.09,-105.10 83.07 80
5 01/15/2021 08:05:07 -0.07,-104.37 -0.93,-100.57 433.66 80
6 01/16/2021 20:29:43 0.07,-104.09 -0.33,-105.85 200.53 80
7 01/17/2021 20:10:58 0.07,-104.10 0.68,-101.32 316.50 80
8 01/19/2021 08:30:07 -0.07,-104.39 0.40,-106.61 252.60 80
9 01/20/2021 08:14:03 -0.07,-104.39 -0.62,-102.08 264.66 80
10 01/21/2021 20:35:58 0.07,-104.12 -0.64,-107.36 368.94 80
11 01/22/2021 20:14:34 0.06,-104.13 0.38,-102.83 148.09 80
